Regional Weather Roundup
Issued by NWS

Home | Current Version | Previous Version | Graphics & Text | Print | Product List | Glossary On
Versions: 1 2 3 4 5 6 7 8 9 10 11 12 13 14 15 16 17 18 19 20 21 22 23 24 25 26 27 28 29 30 31 32 33 34 35 36 37 38 39 40 41 42 43 44 45 46 47 48 49 50
000
ASUS45 KBOU 191107
RWRCO

WEATHER ROUNDUP FOR COLORADO
NATIONAL WEATHER SERVICE DENVER/BOULDER CO
500 AM MDT SUN APR 19 2015

NOTE: "FAIR" INDICATES FEW OR NO CLOUDS BELOW 12000 FEET WITH NO
SIGNIFICANT WEATHER AND/OR OBSTRUCTIONS TO VISIBILITY.

COZ001>005-013-030-031-191200-
...NORTHWEST COLORADO...

CITY           SKY/WX    TMP DP  RH WIND       PRES   REMARKS
CRAIG          CLOUDY    36  31  82 E3        30.14R
HAYDEN         CLOUDY    34  30  86 N3        30.14R
MEEKER         CLOUDY    35  32  88 CALM      30.14R
MOUNT WERNER   NOT AVBL
STEAMBOAT SPGS CLOUDY    32  32  99 CALM      30.13S
WALDEN         CLOUDY    30  23  74 N6        30.13R WCI  24
$$

COZ006>008-011-191200-
...WEST CENTRAL VALLEYS...

CITY           SKY/WX    TMP DP  RH WIND       PRES   REMARKS
GRAND JUNCTION PTCLDY    35  34  96 CALM      30.12R
MONTROSE       CLOUDY    35  34  96 NE3       30.14R
EAGLE          CLOUDY    36  36 100 CALM      30.14S
RIFLE          FOG       33  31  92 W3        30.14R VSB 1/4
DELTA          CLOUDY    36  35  98 SW5       30.14R VSB 1/2
NUCLA          CLEAR     34  32  93 E10       30.14S WCI  26
$$

COZ017>023-064>068-191200-
...SOUTHWEST COLORADO...

CITY           SKY/WX    TMP DP  RH WIND       PRES   REMARKS
DURANGO        CLEAR     28  21  75 E3        30.03R
CORTEZ         CLEAR     34  31  88 E6        30.07S WCI  29
PAGOSA SPRINGS CLEAR     28  22  78 CALM      30.07R
TELLURIDE      CLOUDY    29  28  94 CALM      30.14S
WOLF CREEK PAS CLEAR     18  14  86 NE20      30.13S WCI   1
$$

COZ009-010-012-014-032>034-037-058>063-191200-
...CENTRAL COLORADO...

CITY           SKY/WX    TMP DP  RH WIND       PRES   REMARKS
ASPEN          CLOUDY    30  30 100 CALM      30.10S
BUENA VISTA    MOCLDY    22  16  75 S3        30.09S
COPPER MTN     CLOUDY    23  19  86 W10       30.12S WCI  12
BERTHOUD PASS  CLOUDY    16   9  73 N6G22     30.12S WCI   7
COTTONWOOD PAS MOCLDY    30  18  59 NW7       30.09S WCI  23
GUNNISON       CLEAR     27  19  74 CALM      30.14R
KREMMLING      PTCLDY    32  27  80 CALM      30.12S
LEADVILLE      CLOUDY    22  19  89 NE3       30.09S
MONARCH PASS     N/A     18  14  86 MISG      30.21S
SALIDA         CLOUDY    31  23  71 NW3       30.15S
SUNLIGHT       CLOUDY   N/A N/A N/A CALM      30.18R
WILKERSON PASS LGT SNOW  21  19  93 N9        30.12S VSB 1   WCI  11
$$

COZ069>075-191200-
...SAN LUIS VALLEY/SANGRE DE CRISTO MOUNTAINS...

CITY           SKY/WX    TMP DP  RH WIND       PRES   REMARKS
ALAMOSA        CLEAR     25  21  85 SW3       30.05R
LA VETA PASS   MOCLDY    27  16  63 MISG      30.08R
SAGUACHE       PTCLDY    32  25  74 NW8       30.08R WCI  25
$$

COZ035-036-038>040-191200-
...NORTHERN COLORADO FRONT RANGE...

CITY           SKY/WX    TMP DP  RH WIND       PRES   REMARKS
DENVER INTL AP CLOUDY    39  32  76 N20G30    30.09R
DMNS CITY PARK   N/A     39  31  72 N13       30.10S
AURORA         MOCLDY    37  34  90 N20       30.10R
FRONT RANGE AP CLOUDY    39  34  81 N16G25    30.10R
ERIE MUNI ARPT MOCLDY    40  32  73 NE16G23   30.09S
BOULDER MUN AP CLOUDY    41  36  81 CALM      30.10R
CENTENNIAL     FLURRIES  36  36 100 N17       30.10R
BROOMFIELD     CLOUDY    37  32  81 N15       30.10S
FORT COLLINS   MOCLDY    39  28  65 N20G26    30.12R
LONGMONT       MOCLDY    41  33  74 NW3       30.11S
$$

COZ041-046-047-076>085-087-088-191200-
...PIKES PEAK/PALMER DIVIDE AND SOUTHERN FOOTHILLS...

CITY           SKY/WX    TMP DP  RH WIND       PRES   REMARKS
COLO. SPRINGS  LGT RAIN  37  31  78 N29G40    30.04R
A. F. ACADEMY  MIX PCPN  34  31  89 N26G37    30.06R WCI  21
ELLICOTT       CLOUDY   N/A N/A N/A N32G45    30.00R
FALCON         FLURRIES  34  31  90 N31G39    30.05R WCI  20
FORT CARSON    CLOUDY    39  30  70 N31G46    30.04R
LIMON          LGT RAIN  36  34  92 N32G39    30.01R
MONUMENT HILL  LGT SNOW  32  30  93 N29G37    30.06R WCI  18
TRINIDAD       CLOUDY    39  33  79 NW8       30.02R
$$

COZ042>045-048>051-090-091-191200-
...NORTHEAST COLORADO...

CITY           SKY/WX    TMP DP  RH WIND       PRES   REMARKS
GREELEY ARPT   MOCLDY    39  27  60 N18G25    30.11R
AKRON          CLOUDY    39  36  89 N29G36    30.01R
BURLINGTON     LGT RAIN  44  40  85 N20G31    29.92R
WRAY           LGT RAIN  45  45 100 N25G32    29.95R
STERLING       CLOUDY    41  36  81 N26G32    30.03R
HOLYOKE        CLOUDY    43  37  81 N25G36    29.97R
FORT MORGAN    CLOUDY    40  31  70 N22G32    30.07R
$$

COZ086-089-092>099-191200-
...SOUTHEAST COLORADO...

CITY           SKY/WX    TMP DP  RH WIND       PRES   REMARKS
PUEBLO         CLOUDY    45  34  65 NW17      30.03R
LA JUNTA       LGT RAIN  44  39  82 NW25      29.96R
LAMAR          LGT RAIN  44  41  89 N21       29.87R
SPRINGFIELD      N/A     41  39  93 NW29G39   29.85S
$$



USA.gov is the U.S. government's official web portal to all federal, state and local government web resources and services.